ONEWEB-0647, 56079

Orbit data source: Space-Track

ONEWEB-0647, 56079 is a payload satellite owned by One Web (NAA) (UK) in LEO that was launched on Sun, 26 Mar 2023 UTC via a LVM3 launch vehicle from the Sirharikota (SRI). Payload-class satellites include a variety of spacecraft equipped with specific instruments for various scientific and technological missions. These include communications satellites like Starlink; space stations such as the ISS; scientific satellites like the Hubble; Earth observation satellites from companies like Planet Labs, Umbra, and HawkEye 360; GPS; miniature CubeSats for education and research; and military/defense satellites.

Loading next visibility...
Identifier
56079, 2023-043AK
Orbit
LEO
Country
Flag of UKUK
Related business
Manufacturer
One Web
Mission
Operational Commercial Communications
Bus & Motor
ARROW, Unknown motor
Mass
148 kg wet, ~140 kg dry
Launch date (UTC)
2023-03-26 (2 years ago)
Launch vehicle
LVM3
Launch site
Sirharikota (SRI)
Object type
Payload
Rocket body
Debris
Shape & HBR
Trap Box + 2 Pan, 2.5 m
Radar Cross Section
2.032 m², Large (>1 m²)

Expand to show TLE details & history
Last TLE update: 13 hours ago

TLE from 13 hours ago
0 ONEWEB-0647
1 56079U 23043AK  25250.26792393 -.00000002  00000-0 -39389-4 0  9994
2 56079  87.9047 315.6869 0001819  91.4763 268.6576 13.15548846119221
Epoch: 2025-09-07T06:25Z
TLE epoch observation values (Epoch: 2025-09-07T06:25:48.627Z)
Latitude
Longitude
-127.35555°
Altitude
1,204.698 km
Speed
7.252 km/s
True Right ascension
21h 02m 44s
True Declination
0° 00' 00"
Sunlit
Object was in full shadow at epoch
Visualization orbit readout
Latitude
Unknown
Longitude
Unknown
Altitude
Unknown
Speed
Unknown
Apparent Right ascension
Unknown
Apparent Declination
Unknown
Sunlit
N/A
Visualization observer readout
Local Sidereal Time
11:50:22
Azimuth
Unknown
Elevation
Unknown
Doppler factor
Unknown
Orbital elements
Apogee altitude
1,200.26 km
Perigee altitude
1,197.503 km
Semi-major axis
7,577.019 km
Eccentricity
0.00018
Inclination
87.9047°
RAAN
315.6869°
Arg. of periapsis
91.4763°
True anomaly
268.63676°
Mean anomaly
268.6576°
Eccentric anomaly
268.64718°
Mean motion
3.29076 °/min
Orbital period
109.4 mins
BSTAR
-0.000039389
Loading maneuver chart data...
Computing Atmospheric mass density...
Loading historical data...
Loading historical data...
Loading historical data...
Loading historical data...
Loading historical data...
Loading historical data...
Loading historical data...

Documentation

Showing up to 5 results
|